COSMOS 970 DEB, 64966

Orbit data source: Space-Track

COSMOS 970 DEB, 64966 is space debris in LEO originally from a launch on Wed, 21 Dec 1977 UTC launched from the Tyuratam Missile And Space Complex (TTMTR). Debris objects in space refer to the collection of defunct objects orbiting the Earth. Examples of debris include non-operational satellites, rocket bodies, and fragments generated from explosions, collisions, or faulty payload assembly.

Loading next visibility...
Identifier
64966, 1977-121CB
Orbit
LEO
Country
Flag of CISCIS
Related business
Manufacturer
Unknown
Mission
Spacecraft
Bus & Motor
Unknown
Mass
Unknown
Launch date (UTC)
1977-12-21 (48 years ago)
Launch vehicle
Unknown
Launch site
Tyuratam Missile And Space Complex (TTMTR)
Object type
Payload
Rocket body
Debris
Shape & HBR
Unknown shape, 0.1 m
Radar Cross Section
Small (<0.1 m²)

Expand to show TLE details & history
Last TLE update: 2 weeks ago

TLE from 2 weeks ago
0 COSMOS 970 DEB
1 64966U 77121CB  26161.25077955  .00000430  00000-0  48454-3 0  9990
2 64966  65.8114 149.9761 0109240 194.0975 165.7035 13.78297455630609
Epoch: 2026-06-10T06:01Z
TLE epoch observation values (Epoch: 2026-06-10T06:01:07.353Z)
Latitude
0.00005°
Longitude
161.08387°
Altitude
1,049.764 km
Speed
7.289 km/s
True Right ascension
09h 59m 54s
True Declination
0° 00' 00"
Sunlit
Object was in daylight at epoch
Visualization orbit readout
Latitude
Unknown
Longitude
Unknown
Altitude
Unknown
Speed
Unknown
Apparent Right ascension
Unknown
Apparent Declination
Unknown
Sunlit
N/A
Visualization observer readout
Local Sidereal Time
07:15:48
Azimuth
Unknown
Elevation
Unknown
Doppler factor
Unknown
Orbital elements
Apogee altitude
1,048.703 km
Perigee altitude
888.195 km
Semi-major axis
7,346.586 km
Eccentricity
0.01092
Inclination
65.8114°
RAAN
149.9761°
Arg. of periapsis
194.0975°
True anomaly
166.00858°
Mean anomaly
165.7035°
Eccentric anomaly
165.85644°
Mean motion
3.44679 °/min
Orbital period
104.44 mins
BSTAR
0.00048454
Loading maneuver chart data...
Computing Atmospheric mass density...
Loading historical data...
Loading historical data...
Loading historical data...
Loading historical data...
Loading historical data...
Loading historical data...
Loading historical data...

Documentation

Showing up to 5 results
|